Time,TemperatureF,DewpointF,PressureIn,WindDirection,WindDirectionDegrees,WindSpeedMPH,WindSpeedGustMPH,Humidity,HourlyPrecipIn,Conditions,Clouds,dailyrainin,SoftwareType,DateUTC
2013-02-28 00:00:00,33.9,31.6,29.56,WNW,294,3.0,6.0,91,0.00,,,1.43,Wunderground v.1.15,2013-02-28 05:00:00,
2013-02-28 00:03:00,33.8,31.5,29.56,NW,305,3.0,3.0,91,0.00,,,1.43,Wunderground v.1.15,2013-02-28 05:03:00,
2013-02-28 00:04:00,33.9,31.6,29.56,NNW,340,3.0,3.0,91,0.00,,,1.43,Wunderground v.1.15,2013-02-28 05:04:00,
2013-02-28 00:05:00,33.8,31.5,29.56,NW,309,2.0,3.0,91,0.00,,,1.43,Wunderground v.1.15,2013-02-28 05:05:00,
2013-02-28 00:10:00,33.8,31.5,29.56,NNW,340,3.0,5.0,91,0.00,,,1.43,Wunderground v.1.15,2013-02-28 05:10:00,
2013-02-28 00:16:00,33.8,31.5,29.56,NNW,329,3.0,4.0,91,0.00,,,1.43,Wunderground v.1.15,2013-02-28 05:16:00,
2013-02-28 00:21:00,33.8,31.5,29.56,NW,319,3.0,4.0,91,0.00,,,1.43,Wunderground v.1.15,2013-02-28 05:21:00,
2013-02-28 00:26:00,33.7,31.4,29.56,NNW,327,2.0,3.0,91,0.00,,,1.43,Wunderground v.1.15,2013-02-28 05:26:00,
2013-02-28 00:33:00,33.7,31.4,29.56,WNW,286,2.0,2.0,91,0.00,,,1.43,Wunderground v.1.15,2013-02-28 05:33:00,
2013-02-28 00:39:00,33.7,31.4,29.56,WNW,292,2.0,5.0,91,0.00,,,1.44,Wunderground v.1.15,2013-02-28 05:39:00,
2013-02-28 00:44:00,33.7,31.4,29.56,NW,323,3.0,4.0,91,0.00,,,1.44,Wunderground v.1.15,2013-02-28 05:44:00,
2013-02-28 00:49:00,33.7,31.4,29.56,WNW,290,3.0,5.0,91,0.00,,,1.44,Wunderground v.1.15,2013-02-28 05:49:00,
2013-02-28 00:54:00,33.7,31.4,29.57,WNW,294,3.0,4.0,91,0.00,,,0.00,Wunderground v.1.15,2013-02-28 05:54:00,
2013-02-28 01:00:00,33.7,31.4,29.57,NNW,329,3.0,6.0,91,0.00,,,0.00,Wunderground v.1.15,2013-02-28 06:00:00,
2013-02-28 01:06:00,33.7,31.4,29.57,NW,304,3.0,3.0,91,0.00,,,0.00,Wunderground v.1.15,2013-02-28 06:06:00,
2013-02-28 01:11:00,33.7,31.4,29.57,WNW,284,3.0,6.0,91,0.00,,,0.00,Wunderground v.1.15,2013-02-28 06:11:00,
2013-02-28 01:18:00,33.7,31.4,29.57,WNW,282,3.0,5.0,91,0.00,,,0.00,Wunderground v.1.15,2013-02-28 06:18:00,
2013-02-28 01:24:00,33.7,31.4,29.57,WNW,301,3.0,3.0,91,0.00,,,0.00,Wunderground v.1.15,2013-02-28 06:24:00,
2013-02-28 01:29:00,33.7,31.4,29.57,WNW,298,2.0,3.0,91,0.00,,,0.00,Wunderground v.1.15,2013-02-28 06:29:00,
2013-02-28 01:35:00,33.7,31.4,29.57,NW,307,3.0,3.0,91,0.00,,,0.00,Wunderground v.1.15,2013-02-28 06:35:00,
2013-02-28 01:41:00,33.7,31.4,29.57,NW,313,3.0,4.0,91,0.00,,,0.00,Wunderground v.1.15,2013-02-28 06:41:00,
2013-02-28 01:48:00,33.6,31.3,29.57,WNW,290,2.0,4.0,91,0.00,,,0.00,Wunderground v.1.15,2013-02-28 06:48:00,
2013-02-28 01:53:00,33.6,31.3,29.57,WNW,298,2.0,2.0,91,0.00,,,0.00,Wunderground v.1.15,2013-02-28 06:53:00,
2013-02-28 01:59:00,33.6,31.3,29.57,NW,304,2.0,4.0,91,0.00,,,0.00,Wunderground v.1.15,2013-02-28 06:59:00,
2013-02-28 02:05:00,33.6,31.3,29.57,WNW,294,2.0,3.0,91,0.00,,,0.00,Wunderground v.1.15,2013-02-28 07:05:00,
2013-02-28 02:11:00,33.6,31.3,29.57,WNW,298,2.0,4.0,91,0.00,,,0.00,Wunderground v.1.15,2013-02-28 07:11:00,
2013-02-28 02:18:00,33.5,31.2,29.57,NW,319,2.0,2.0,91,0.00,,,0.00,Wunderground v.1.15,2013-02-28 07:18:00,
2013-02-28 02:23:00,33.5,31.2,29.56,WNW,291,1.0,3.0,91,0.00,,,0.00,Wunderground v.1.15,2013-02-28 07:23:00,
2013-02-28 02:28:00,33.5,31.2,29.57,WNW,296,2.0,3.0,91,0.00,,,0.00,Wunderground v.1.15,2013-02-28 07:28:00,
2013-02-28 02:34:00,33.5,31.2,29.57,WNW,293,2.0,3.0,91,0.00,,,0.00,Wunderground v.1.15,2013-02-28 07:34:00,
2013-02-28 02:40:00,33.5,31.2,29.57,WNW,302,2.0,3.0,91,0.00,,,0.00,Wunderground v.1.15,2013-02-28 07:40:00,
2013-02-28 02:45:00,33.5,31.2,29.57,WNW,296,2.0,4.0,91,0.00,,,0.00,Wunderground v.1.15,2013-02-28 07:45:00,
2013-02-28 02:51:00,33.5,31.2,29.57,NW,315,2.0,5.0,91,0.00,,,0.00,Wunderground v.1.15,2013-02-28 07:51:00,
2013-02-28 02:56:00,33.5,31.2,29.57,WNW,293,2.0,3.0,91,0.00,,,0.00,Wunderground v.1.15,2013-02-28 07:56:00,
2013-02-28 03:03:00,33.5,31.2,29.56,NW,317,2.0,2.0,91,0.00,,,0.00,Wunderground v.1.15,2013-02-28 08:03:00,
2013-02-28 03:08:00,33.4,31.1,29.57,WNW,294,2.0,3.0,91,0.00,,,0.00,Wunderground v.1.15,2013-02-28 08:08:00,
2013-02-28 03:14:00,33.4,31.1,29.57,WNW,300,1.0,1.0,91,0.00,,,0.00,Wunderground v.1.15,2013-02-28 08:14:00,
2013-02-28 03:20:00,33.4,31.1,29.57,West,273,1.0,3.0,91,0.00,,,0.00,Wunderground v.1.15,2013-02-28 08:20:00,
2013-02-28 03:25:00,33.4,31.1,29.57,NW,304,1.0,2.0,91,0.00,,,0.00,Wunderground v.1.15,2013-02-28 08:25:00,
2013-02-28 03:31:00,33.4,31.1,29.57,WNW,303,1.0,2.0,91,0.00,,,0.00,Wunderground v.1.15,2013-02-28 08:31:00,
2013-02-28 03:38:00,33.3,31.0,29.57,NW,325,1.0,2.0,91,0.00,,,0.00,Wunderground v.1.15,2013-02-28 08:38:00,
2013-02-28 03:43:00,33.3,31.0,29.57,WNW,296,2.0,2.0,91,0.00,,,0.00,Wunderground v.1.15,2013-02-28 08:43:00,
2013-02-28 03:48:00,33.2,30.9,29.57,NW,307,2.0,3.0,91,0.00,,,0.00,Wunderground v.1.15,2013-02-28 08:48:00,
2013-02-28 03:54:00,33.1,30.8,29.57,NW,306,2.0,2.0,91,0.00,,,0.00,Wunderground v.1.15,2013-02-28 08:54:00,
2013-02-28 03:59:00,33.0,30.7,29.57,NW,306,1.0,2.0,91,0.00,,,0.00,Wunderground v.1.15,2013-02-28 08:59:00,
2013-02-28 04:04:00,32.9,30.6,29.56,NW,306,1.0,1.0,91,0.00,,,0.00,Wunderground v.1.15,2013-02-28 09:04:00,
2013-02-28 04:10:00,32.8,30.5,29.57,NW,306,0.0,1.0,91,0.00,,,0.00,Wunderground v.1.15,2013-02-28 09:10:00,
2013-02-28 04:16:00,32.7,30.4,29.57,NW,306,0.0,0.0,91,0.00,,,0.00,Wunderground v.1.15,2013-02-28 09:16:00,
2013-02-28 04:23:00,32.5,30.2,29.57,NW,306,0.0,0.0,91,0.00,,,0.00,Wunderground v.1.15,2013-02-28 09:23:00,
2013-02-28 04:28:00,32.3,30.0,29.57,NW,306,0.0,0.0,91,0.00,,,0.00,Wunderground v.1.15,2013-02-28 09:28:00,
2013-02-28 04:34:00,32.1,29.8,29.57,NW,306,0.0,0.0,91,0.00,,,0.00,Wunderground v.1.15,2013-02-28 09:34:00,
2013-02-28 04:40:00,31.8,29.5,29.58,NW,306,0.0,1.0,91,0.00,,,0.00,Wunderground v.1.15,2013-02-28 09:40:00,
2013-02-28 04:46:00,31.6,29.3,29.59,NW,306,1.0,2.0,91,0.00,,,0.00,Wunderground v.1.15,2013-02-28 09:46:00,
2013-02-28 04:51:00,31.5,29.2,29.59,NW,306,1.0,2.0,91,0.00,,,0.00,Wunderground v.1.15,2013-02-28 09:51:00,
2013-02-28 04:56:00,31.6,29.3,29.59,NW,306,0.0,1.0,91,0.00,,,0.00,Wunderground v.1.15,2013-02-28 09:56:00,
2013-02-28 05:01:00,31.6,29.3,29.59,NW,306,0.0,1.0,91,0.00,,,0.00,Wunderground v.1.15,2013-02-28 10:01:00,
2013-02-28 05:08:00,31.7,29.4,29.60,NW,306,0.0,0.0,91,0.00,,,0.00,Wunderground v.1.15,2013-02-28 10:08:00,
2013-02-28 05:14:00,31.7,29.4,29.60,NW,306,0.0,0.0,91,0.00,,,0.00,Wunderground v.1.15,2013-02-28 10:14:00,
2013-02-28 05:20:00,31.8,29.5,29.60,NW,306,0.0,0.0,91,0.00,,,0.00,Wunderground v.1.15,2013-02-28 10:20:00,
2013-02-28 05:26:00,31.8,29.5,29.60,NW,306,0.0,0.0,91,0.00,,,0.00,Wunderground v.1.15,2013-02-28 10:26:00,
2013-02-28 05:33:00,31.9,29.6,29.59,NW,306,0.0,0.0,91,0.00,,,0.00,Wunderground v.1.15,2013-02-28 10:33:00,
2013-02-28 05:39:00,31.9,29.6,29.59,NW,306,0.0,0.0,91,0.00,,,0.00,Wunderground v.1.15,2013-02-28 10:39:00,
2013-02-28 05:45:00,32.0,29.7,29.60,NW,306,0.0,0.0,91,0.00,,,0.00,Wunderground v.1.15,2013-02-28 10:45:00,
2013-02-28 05:51:00,32.0,29.7,29.60,NW,306,0.0,0.0,91,0.00,,,0.00,Wunderground v.1.15,2013-02-28 10:51:00,
2013-02-28 05:58:00,32.0,29.7,29.60,NW,306,0.0,0.0,91,0.00,,,0.00,Wunderground v.1.15,2013-02-28 10:58:00,
2013-02-28 06:04:00,32.1,29.8,29.59,NW,306,0.0,0.0,91,0.00,,,0.00,Wunderground v.1.15,2013-02-28 11:04:00,
2013-02-28 06:09:00,32.1,29.8,29.60,NW,306,0.0,0.0,91,0.00,,,0.00,Wunderground v.1.15,2013-02-28 11:09:00,
2013-02-28 06:14:00,32.1,29.8,29.60,NW,306,0.0,0.0,91,0.00,,,0.00,Wunderground v.1.15,2013-02-28 11:14:00,
2013-02-28 06:20:00,32.1,29.8,29.59,NW,306,0.0,0.0,91,0.00,,,0.00,Wunderground v.1.15,2013-02-28 11:20:00,
2013-02-28 06:26:00,32.1,29.8,29.59,NW,306,0.0,1.0,91,0.00,,,0.00,Wunderground v.1.15,2013-02-28 11:26:00,
2013-02-28 06:33:00,32.3,30.0,29.59,NW,306,0.0,0.0,91,0.00,,,0.00,Wunderground v.1.15,2013-02-28 11:33:00,
2013-02-28 06:39:00,32.3,30.0,29.59,NW,306,0.0,0.0,91,0.00,,,0.00,Wunderground v.1.15,2013-02-28 11:39:00,
2013-02-28 06:45:00,32.4,30.1,29.59,NW,306,0.0,0.0,91,0.00,,,0.00,Wunderground v.1.15,2013-02-28 11:45:00,
2013-02-28 06:51:00,32.5,30.2,29.59,NW,306,0.0,0.0,91,0.00,,,0.00,Wunderground v.1.15,2013-02-28 11:51:00,
2013-02-28 06:58:00,32.6,30.3,29.59,NW,306,0.0,1.0,91,0.00,,,0.00,Wunderground v.1.15,2013-02-28 11:58:00,
2013-02-28 07:03:00,32.7,30.4,29.59,NW,306,1.0,1.0,91,0.00,,,0.00,Wunderground v.1.15,2013-02-28 12:03:00,
2013-02-28 07:08:00,32.9,30.6,29.59,NW,306,1.0,1.0,91,0.00,,,0.00,Wunderground v.1.15,2013-02-28 12:08:00,
2013-02-28 07:14:00,33.0,30.7,29.59,NW,306,0.0,2.0,91,0.00,,,0.00,Wunderground v.1.15,2013-02-28 12:14:00,
2013-02-28 07:19:00,33.2,30.9,29.60,West,276,1.0,2.0,91,0.00,,,0.00,Wunderground v.1.15,2013-02-28 12:19:00,
2013-02-28 07:25:00,33.3,31.0,29.60,West,276,1.0,1.0,91,0.00,,,0.00,Wunderground v.1.15,2013-02-28 12:25:00,
2013-02-28 07:31:00,33.4,31.1,29.60,WSW,253,1.0,3.0,91,0.00,,,0.00,Wunderground v.1.15,2013-02-28 12:31:00,
2013-02-28 07:38:00,33.5,31.2,29.60,WSW,243,1.0,4.0,91,0.00,,,0.00,Wunderground v.1.15,2013-02-28 12:38:00,
2013-02-28 07:43:00,33.7,31.4,29.60,WNW,297,1.0,1.0,91,0.00,,,0.00,Wunderground v.1.15,2013-02-28 12:43:00,
2013-02-28 07:48:00,33.9,31.6,29.60,WSW,238,2.0,3.0,91,0.00,,,0.00,Wunderground v.1.15,2013-02-28 12:48:00,
2013-02-28 07:54:00,33.9,31.6,29.60,WNW,288,2.0,2.0,91,0.00,,,0.00,Wunderground v.1.15,2013-02-28 12:54:00,
2013-02-28 08:00:00,33.9,31.6,29.61,WSW,244,2.0,4.0,91,0.00,,,0.00,Wunderground v.1.15,2013-02-28 13:00:00,
2013-02-28 08:06:00,33.8,31.5,29.61,WNW,290,2.0,3.0,91,0.00,,,0.00,Wunderground v.1.15,2013-02-28 13:06:00,
2013-02-28 08:11:00,33.9,31.6,29.61,WNW,290,2.0,3.0,91,0.00,,,0.00,Wunderground v.1.15,2013-02-28 13:11:00,
2013-02-28 08:18:00,34.1,31.7,29.62,WNW,290,1.0,2.0,91,0.00,,,0.00,Wunderground v.1.15,2013-02-28 13:18:00,
2013-02-28 08:23:00,34.3,31.9,29.62,West,263,1.0,1.0,91,0.00,,,0.00,Wunderground v.1.15,2013-02-28 13:23:00,
2013-02-28 08:29:00,34.4,32.0,29.62,South,180,1.0,2.0,91,0.00,,,0.00,Wunderground v.1.15,2013-02-28 13:29:00,
2013-02-28 08:34:00,34.4,32.0,29.62,WSW,247,1.0,2.0,91,0.00,,,0.00,Wunderground v.1.15,2013-02-28 13:34:00,
2013-02-28 08:40:00,34.5,32.1,29.62,West,270,1.0,2.0,91,0.00,,,0.00,Wunderground v.1.15,2013-02-28 13:40:00,
2013-02-28 08:46:00,34.5,32.1,29.62,WNW,288,1.0,2.0,91,0.00,,,0.00,Wunderground v.1.15,2013-02-28 13:46:00,
2013-02-28 08:53:00,34.7,32.3,29.62,SW,236,1.0,2.0,91,0.00,,,0.00,Wunderground v.1.15,2013-02-28 13:53:00,
2013-02-28 08:58:00,34.7,32.3,29.62,WNW,286,2.0,2.0,91,0.00,,,0.00,Wunderground v.1.15,2013-02-28 13:58:00,
2013-02-28 09:04:00,34.9,32.5,29.62,SSW,203,2.0,4.0,91,0.00,,,0.00,Wunderground v.1.15,2013-02-28 14:04:00,
2013-02-28 09:09:00,35.0,32.6,29.62,SW,221,2.0,4.0,91,0.00,,,0.00,Wunderground v.1.15,2013-02-28 14:09:00,
2013-02-28 09:14:00,35.0,32.6,29.62,WSW,244,2.0,2.0,91,0.00,,,0.00,Wunderground v.1.15,2013-02-28 14:14:00,
2013-02-28 09:20:00,35.3,32.9,29.61,West,264,1.0,3.0,91,0.00,,,0.00,Wunderground v.1.15,2013-02-28 14:20:00,
2013-02-28 09:26:00,35.5,33.1,29.61,West,264,1.0,2.0,91,0.00,,,0.00,Wunderground v.1.15,2013-02-28 14:26:00,
2013-02-28 09:33:00,36.0,33.6,29.61,West,269,2.0,2.0,91,0.00,,,0.00,Wunderground v.1.15,2013-02-28 14:33:00,
2013-02-28 09:38:00,36.2,33.8,29.60,West,269,1.0,2.0,91,0.00,,,0.00,Wunderground v.1.15,2013-02-28 14:38:00,
2013-02-28 09:43:00,36.3,33.9,29.60,West,269,0.0,1.0,91,0.00,,,0.00,Wunderground v.1.15,2013-02-28 14:43:00,
2013-02-28 09:49:00,36.8,34.4,29.59,West,269,1.0,2.0,91,0.00,,,0.00,Wunderground v.1.15,2013-02-28 14:49:00,
2013-02-28 09:54:00,37.2,34.8,29.60,West,269,1.0,2.0,91,0.00,,,0.00,Wunderground v.1.15,2013-02-28 14:54:00,
2013-02-28 10:00:00,37.5,35.1,29.60,West,277,2.0,3.0,91,0.00,,,0.00,Wunderground v.1.15,2013-02-28 15:00:00,
2013-02-28 10:06:00,37.6,35.2,29.61,WNW,286,2.0,3.0,91,0.00,,,0.00,Wunderground v.1.15,2013-02-28 15:06:00,
2013-02-28 10:11:00,37.3,34.9,29.60,WNW,290,2.0,4.0,91,0.00,,,0.00,Wunderground v.1.15,2013-02-28 15:11:00,
2013-02-28 10:16:00,37.0,34.6,29.60,WNW,286,3.0,3.0,91,0.00,,,0.00,Wunderground v.1.15,2013-02-28 15:16:00,
2013-02-28 10:23:00,37.0,34.6,29.60,WNW,290,2.0,2.0,91,0.00,,,0.00,Wunderground v.1.15,2013-02-28 15:23:00,
2013-02-28 10:28:00,37.1,34.7,29.59,NW,310,1.0,2.0,91,0.00,,,0.00,Wunderground v.1.15,2013-02-28 15:28:00,
2013-02-28 10:34:00,37.4,35.0,29.60,NW,310,1.0,1.0,91,0.00,,,0.00,Wunderground v.1.15,2013-02-28 15:34:00,
2013-02-28 10:39:00,37.6,35.2,29.59,NW,310,0.0,1.0,91,0.00,,,0.00,Wunderground v.1.15,2013-02-28 15:39:00,
2013-02-28 10:45:00,37.8,35.1,29.59,NW,310,0.0,2.0,90,0.00,,,0.00,Wunderground v.1.15,2013-02-28 15:45:00,
2013-02-28 10:50:00,37.9,35.2,29.59,NW,310,0.0,2.0,90,0.00,,,0.00,Wunderground v.1.15,2013-02-28 15:50:00,
2013-02-28 10:55:00,38.2,35.5,29.59,WNW,292,1.0,2.0,90,0.00,,,0.00,Wunderground v.1.15,2013-02-28 15:55:00,
2013-02-28 11:01:00,38.3,35.6,29.59,WNW,294,1.0,2.0,90,0.00,,,0.00,Wunderground v.1.15,2013-02-28 16:01:00,
2013-02-28 11:08:00,38.3,35.3,29.60,NW,305,2.0,3.0,89,0.00,,,0.00,Wunderground v.1.15,2013-02-28 16:08:00,
2013-02-28 11:14:00,38.6,35.9,29.59,WSW,246,1.0,2.0,90,0.00,,,0.00,Wunderground v.1.15,2013-02-28 16:14:00,
2013-02-28 11:20:00,39.2,36.5,29.59,West,259,1.0,2.0,90,0.00,,,0.00,Wunderground v.1.15,2013-02-28 16:20:00,
2013-02-28 11:25:00,39.6,36.9,29.59,SSW,213,1.0,2.0,90,0.00,,,0.00,Wunderground v.1.15,2013-02-28 16:25:00,
2013-02-28 11:31:00,39.6,36.6,29.59,SSW,202,1.0,2.0,89,0.00,,,0.00,Wunderground v.1.15,2013-02-28 16:31:00,
2013-02-28 11:36:00,39.4,36.1,29.59,SSW,200,1.0,2.0,88,0.00,,,0.00,Wunderground v.1.15,2013-02-28 16:36:00,
2013-02-28 11:43:00,39.1,35.8,29.59,SW,217,1.0,1.0,88,0.00,,,0.00,Wunderground v.1.15,2013-02-28 16:43:00,
2013-02-28 11:48:00,39.1,35.8,29.58,SW,217,1.0,1.0,88,0.00,,,0.00,Wunderground v.1.15,2013-02-28 16:48:00,
2013-02-28 11:54:00,39.1,35.8,29.58,SW,214,1.0,1.0,88,0.00,,,0.00,Wunderground v.1.15,2013-02-28 16:54:00,
2013-02-28 12:00:00,39.4,36.4,29.58,SW,214,0.0,1.0,89,0.00,,,0.00,Wunderground v.1.15,2013-02-28 17:00:00,
2013-02-28 12:05:00,39.8,36.8,29.58,SW,214,0.0,1.0,89,0.00,,,0.00,Wunderground v.1.15,2013-02-28 17:05:00,
2013-02-28 12:11:00,40.3,37.3,29.58,West,265,1.0,2.0,89,0.00,,,0.00,Wunderground v.1.15,2013-02-28 17:11:00,
2013-02-28 12:16:00,40.4,36.8,29.57,NW,311,1.0,2.0,87,0.00,,,0.00,Wunderground v.1.15,2013-02-28 17:16:00,
2013-02-28 12:23:00,40.3,37.0,29.57,West,270,1.0,1.0,88,0.00,,,0.00,Wunderground v.1.15,2013-02-28 17:23:00,
2013-02-28 12:28:00,40.6,37.3,29.57,SW,229,2.0,4.0,88,0.00,,,0.00,Wunderground v.1.15,2013-02-28 17:28:00,
2013-02-28 12:34:00,41.1,37.8,29.56,SW,227,2.0,2.0,88,0.00,,,0.00,Wunderground v.1.15,2013-02-28 17:34:00,
2013-02-28 12:40:00,41.6,38.0,29.56,SSE,150,1.0,2.0,87,0.00,,,0.00,Wunderground v.1.15,2013-02-28 17:40:00,
2013-02-28 12:46:00,41.9,37.7,29.55,East,96,2.0,2.0,85,0.00,,,0.00,Wunderground v.1.15,2013-02-28 17:46:00,
2013-02-28 12:51:00,42.1,38.2,29.56,ESE,119,2.0,2.0,86,0.00,,,0.00,Wunderground v.1.15,2013-02-28 17:51:00,
2013-02-28 12:58:00,42.9,39.0,29.55,SE,134,1.0,2.0,86,0.00,,,0.00,Wunderground v.1.15,2013-02-28 17:58:00,
2013-02-28 13:03:00,43.1,38.6,29.55,SE,135,1.0,1.0,84,0.00,,,0.00,Wunderground v.1.15,2013-02-28 18:03:00,
2013-02-28 13:08:00,43.2,38.7,29.55,SE,135,1.0,2.0,84,0.00,,,0.00,Wunderground v.1.15,2013-02-28 18:08:00,
2013-02-28 13:14:00,43.0,38.2,29.55,SSE,159,1.0,3.0,83,0.00,,,0.00,Wunderground v.1.15,2013-02-28 18:14:00,
2013-02-28 13:19:00,43.3,38.8,29.55,South,175,1.0,3.0,84,0.00,,,0.00,Wunderground v.1.15,2013-02-28 18:19:00,
2013-02-28 13:25:00,43.8,39.3,29.55,South,178,1.0,1.0,84,0.00,,,0.00,Wunderground v.1.15,2013-02-28 18:25:00,
2013-02-28 13:30:00,43.6,38.5,29.55,South,178,0.0,2.0,82,0.00,,,0.00,Wunderground v.1.15,2013-02-28 18:30:00,
2013-02-28 13:36:00,43.5,38.1,29.55,SSW,196,1.0,3.0,81,0.00,,,0.00,Wunderground v.1.15,2013-02-28 18:36:00,
2013-02-28 13:43:00,43.4,38.3,29.54,West,269,1.0,2.0,82,0.00,,,0.00,Wunderground v.1.15,2013-02-28 18:43:00,
2013-02-28 13:48:00,43.2,38.1,29.54,SW,219,2.0,2.0,82,0.00,,,0.00,Wunderground v.1.15,2013-02-28 18:48:00,
2013-02-28 13:53:00,43.1,37.7,29.54,WNW,295,2.0,3.0,81,0.00,,,0.00,Wunderground v.1.15,2013-02-28 18:53:00,
2013-02-28 13:58:00,42.9,37.8,29.54,SW,228,2.0,3.0,82,0.00,,,0.00,Wunderground v.1.15,2013-02-28 18:58:00,
2013-02-28 14:03:00,43.1,38.3,29.53,WNW,289,2.0,4.0,83,0.00,,,0.00,Wunderground v.1.15,2013-02-28 19:03:00,
2013-02-28 14:08:00,43.8,38.7,29.53,SSE,160,2.0,4.0,82,0.00,,,0.00,Wunderground v.1.15,2013-02-28 19:08:00,
2013-02-28 14:14:00,44.4,39.6,29.53,SSE,160,1.0,2.0,83,0.00,,,0.00,Wunderground v.1.15,2013-02-28 19:14:00,
2013-02-28 14:19:00,44.5,38.4,29.52,SSE,153,1.0,2.0,79,0.00,,,0.00,Wunderground v.1.15,2013-02-28 19:19:00,
2013-02-28 14:25:00,44.6,38.8,29.52,ESE,115,1.0,1.0,80,0.00,,,0.00,Wunderground v.1.15,2013-02-28 19:25:00,
2013-02-28 14:31:00,44.7,38.9,29.52,SSE,157,1.0,2.0,80,0.00,,,0.00,Wunderground v.1.15,2013-02-28 19:31:00,
2013-02-28 14:38:00,45.0,38.9,29.52,West,264,1.0,2.0,79,0.00,,,0.00,Wunderground v.1.15,2013-02-28 19:38:00,
2013-02-28 14:43:00,44.4,38.0,29.52,NNW,330,1.0,1.0,78,0.00,,,0.00,Wunderground v.1.15,2013-02-28 19:43:00,
2013-02-28 14:48:00,44.2,38.1,29.52,NNW,330,1.0,1.0,79,0.00,,,0.00,Wunderground v.1.15,2013-02-28 19:48:00,
2013-02-28 14:54:00,44.8,38.4,29.52,NNW,329,0.0,2.0,78,0.00,,,0.00,Wunderground v.1.15,2013-02-28 19:54:00,
2013-02-28 15:00:00,45.3,38.5,29.52,NNW,333,1.0,2.0,77,0.00,,,0.00,Wunderground v.1.15,2013-02-28 20:00:00,
2013-02-28 15:05:00,44.9,37.8,29.52,NE,46,2.0,2.0,76,0.00,,,0.00,Wunderground v.1.15,2013-02-28 20:05:00,
2013-02-28 15:11:00,44.3,37.5,29.52,NE,42,2.0,3.0,77,0.00,,,0.00,Wunderground v.1.15,2013-02-28 20:11:00,
2013-02-28 15:18:00,44.1,37.7,29.51,NW,311,1.0,2.0,78,0.00,,,0.00,Wunderground v.1.15,2013-02-28 20:18:00,
2013-02-28 15:24:00,44.0,37.6,29.51,NNW,344,1.0,2.0,78,0.00,,,0.00,Wunderground v.1.15,2013-02-28 20:24:00,
2013-02-28 15:29:00,43.8,37.1,29.51,NNW,328,1.0,2.0,77,0.00,,,0.00,Wunderground v.1.15,2013-02-28 20:29:00,
2013-02-28 15:35:00,43.7,37.6,29.51,NNW,327,1.0,1.0,79,0.00,,,0.00,Wunderground v.1.15,2013-02-28 20:35:00,
2013-02-28 15:40:00,43.7,37.3,29.51,WNW,301,1.0,2.0,78,0.00,,,0.00,Wunderground v.1.15,2013-02-28 20:40:00,
2013-02-28 15:45:00,43.6,37.5,29.51,WNW,301,1.0,1.0,79,0.00,,,0.00,Wunderground v.1.15,2013-02-28 20:45:00,
2013-02-28 15:51:00,43.5,37.4,29.51,WNW,301,1.0,2.0,79,0.00,,,0.00,Wunderground v.1.15,2013-02-28 20:51:00,
2013-02-28 15:58:00,43.4,37.3,29.52,WNW,301,1.0,2.0,79,0.00,,,0.00,Wunderground v.1.15,2013-02-28 20:58:00,
2013-02-28 16:03:00,43.3,37.5,29.52,WNW,301,1.0,1.0,80,0.00,,,0.00,Wunderground v.1.15,2013-02-28 21:03:00,
2013-02-28 16:08:00,43.2,37.1,29.52,WNW,300,1.0,1.0,79,0.00,,,0.00,Wunderground v.1.15,2013-02-28 21:08:00,
2013-02-28 16:14:00,43.1,37.3,29.52,NW,305,1.0,2.0,80,0.00,,,0.00,Wunderground v.1.15,2013-02-28 21:14:00,
2013-02-28 16:20:00,43.0,37.3,29.52,NW,305,1.0,2.0,80,0.00,,,0.00,Wunderground v.1.15,2013-02-28 21:20:00,
2013-02-28 16:25:00,42.9,37.2,29.52,NW,304,1.0,1.0,80,0.00,,,0.00,Wunderground v.1.15,2013-02-28 21:25:00,
2013-02-28 16:31:00,42.9,37.2,29.52,NW,304,1.0,1.0,80,0.00,,,0.00,Wunderground v.1.15,2013-02-28 21:31:00,
2013-02-28 16:38:00,42.7,37.0,29.51,NW,305,0.0,1.0,80,0.00,,,0.00,Wunderground v.1.15,2013-02-28 21:38:00,
2013-02-28 16:43:00,42.7,37.3,29.51,NW,305,0.0,0.0,81,0.00,,,0.00,Wunderground v.1.15,2013-02-28 21:43:00,
2013-02-28 16:49:00,42.5,37.1,29.52,NW,305,0.0,1.0,81,0.00,,,0.00,Wunderground v.1.15,2013-02-28 21:49:00,
2013-02-28 16:55:00,42.4,37.3,29.52,NW,304,0.0,0.0,82,0.00,,,0.00,Wunderground v.1.15,2013-02-28 21:55:00,
2013-02-28 17:01:00,42.2,37.1,29.51,NW,305,0.0,0.0,82,0.00,,,0.00,Wunderground v.1.15,2013-02-28 22:01:00,
2013-02-28 17:08:00,42.0,37.2,29.52,NW,305,0.0,0.0,83,0.00,,,0.00,Wunderground v.1.15,2013-02-28 22:08:00,
2013-02-28 17:14:00,41.7,37.2,29.52,NW,304,0.0,1.0,84,0.00,,,0.00,Wunderground v.1.15,2013-02-28 22:14:00,
2013-02-28 17:20:00,41.2,37.0,29.52,NW,305,1.0,1.0,85,0.00,,,0.00,Wunderground v.1.15,2013-02-28 22:20:00,
2013-02-28 17:25:00,40.9,37.0,29.52,NW,305,0.0,0.0,86,0.00,,,0.00,Wunderground v.1.15,2013-02-28 22:25:00,
2013-02-28 17:31:00,40.6,36.7,29.52,NW,304,0.0,0.0,86,0.00,,,0.00,Wunderground v.1.15,2013-02-28 22:31:00,
2013-02-28 17:38:00,40.2,36.6,29.52,NW,305,0.0,0.0,87,0.00,,,0.00,Wunderground v.1.15,2013-02-28 22:38:00,
2013-02-28 17:44:00,39.8,36.2,29.52,NW,304,0.0,0.0,87,0.00,,,0.00,Wunderground v.1.15,2013-02-28 22:44:00,
2013-02-28 17:50:00,39.5,36.2,29.52,NW,305,0.0,0.0,88,0.00,,,0.00,Wunderground v.1.15,2013-02-28 22:50:00,
2013-02-28 17:56:00,39.4,36.1,29.52,NW,304,0.0,0.0,88,0.00,,,0.00,Wunderground v.1.15,2013-02-28 22:56:00,
2013-02-28 18:01:00,39.2,35.9,29.52,NW,304,0.0,2.0,88,0.00,,,0.00,Wunderground v.1.15,2013-02-28 23:01:00,
2013-02-28 18:08:00,38.8,35.8,29.52,NW,305,0.0,1.0,89,0.00,,,0.00,Wunderground v.1.15,2013-02-28 23:08:00,
2013-02-28 18:14:00,38.5,35.5,29.52,NW,305,1.0,1.0,89,0.00,,,0.00,Wunderground v.1.15,2013-02-28 23:14:00,
2013-02-28 18:19:00,38.1,35.1,29.52,NW,304,1.0,2.0,89,0.00,,,0.00,Wunderground v.1.15,2013-02-28 23:19:00,
2013-02-28 18:25:00,37.6,34.7,29.52,NW,305,1.0,2.0,89,0.00,,,0.00,Wunderground v.1.15,2013-02-28 23:25:00,
2013-02-28 18:31:00,37.2,34.3,29.52,NW,305,1.0,2.0,89,0.00,,,0.00,Wunderground v.1.15,2013-02-28 23:31:00,
2013-02-28 18:36:00,37.0,34.1,29.52,NW,304,1.0,1.0,89,0.00,,,0.00,Wunderground v.1.15,2013-02-28 23:36:00,
2013-02-28 18:41:00,36.8,33.9,29.52,NW,304,1.0,1.0,89,0.00,,,0.00,Wunderground v.1.15,2013-02-28 23:41:00,
2013-02-28 18:46:00,36.6,33.7,29.52,NW,305,1.0,2.0,89,0.00,,,0.00,Wunderground v.1.15,2013-02-28 23:46:00,
2013-02-28 18:53:00,36.3,33.6,29.52,NW,304,1.0,1.0,90,0.00,,,0.00,Wunderground v.1.15,2013-02-28 23:53:00,
2013-02-28 18:59:00,36.1,33.5,29.52,NW,305,1.0,1.0,90,0.00,,,0.00,Wunderground v.1.15,2013-02-28 23:59:00,
2013-02-28 19:04:00,35.9,33.3,29.52,NW,305,0.0,1.0,90,0.00,,,0.00,Wunderground v.1.15,2013-03-01 00:04:00,
2013-02-28 19:09:00,35.7,33.1,29.52,NW,305,0.0,1.0,90,0.00,,,0.00,Wunderground v.1.15,2013-03-01 00:09:00,
2013-02-28 19:14:00,35.4,32.8,29.52,NW,304,1.0,1.0,90,0.00,,,0.00,Wunderground v.1.15,2013-03-01 00:14:00,
2013-02-28 19:20:00,35.0,32.4,29.52,NW,304,1.0,2.0,90,0.00,,,0.00,Wunderground v.1.15,2013-03-01 00:20:00,
2013-02-28 19:25:00,34.6,32.0,29.52,NW,305,1.0,2.0,90,0.00,,,0.00,Wunderground v.1.15,2013-03-01 00:25:00,
2013-02-28 19:31:00,34.4,31.8,29.52,NW,304,1.0,2.0,90,0.00,,,0.00,Wunderground v.1.15,2013-03-01 00:31:00,
2013-02-28 19:36:00,34.1,31.5,29.52,NW,304,1.0,1.0,90,0.00,,,0.00,Wunderground v.1.15,2013-03-01 00:36:00,
2013-02-28 19:43:00,33.7,31.1,29.52,NW,304,1.0,2.0,90,0.00,,,0.00,Wunderground v.1.15,2013-03-01 00:43:00,
2013-02-28 19:48:00,33.5,30.9,29.52,NW,304,2.0,2.0,90,0.00,,,0.00,Wunderground v.1.15,2013-03-01 00:48:00,
2013-02-28 19:54:00,33.2,30.6,29.52,NW,305,2.0,2.0,90,0.00,,,0.00,Wunderground v.1.15,2013-03-01 00:54:00,
2013-02-28 19:59:00,33.0,30.4,29.52,NW,305,2.0,2.0,90,0.00,,,0.00,Wunderground v.1.15,2013-03-01 00:59:00,
2013-02-28 20:05:00,32.8,30.2,29.53,NW,304,2.0,2.0,90,0.00,,,0.00,Wunderground v.1.15,2013-03-01 01:05:00,
2013-02-28 20:10:00,32.7,30.1,29.52,NW,304,2.0,3.0,90,0.00,,,0.00,Wunderground v.1.15,2013-03-01 01:10:00,
2013-02-28 20:16:00,32.7,30.1,29.53,WNW,303,2.0,2.0,90,0.00,,,0.00,Wunderground v.1.15,2013-03-01 01:16:00,
2013-02-28 20:23:00,32.8,30.2,29.53,NW,304,1.0,1.0,90,0.00,,,0.00,Wunderground v.1.15,2013-03-01 01:23:00,
2013-02-28 20:29:00,32.9,30.3,29.53,NW,304,0.0,1.0,90,0.00,,,0.00,Wunderground v.1.15,2013-03-01 01:29:00,
2013-02-28 20:34:00,32.9,30.3,29.53,NW,304,0.0,0.0,90,0.00,,,0.00,Wunderground v.1.15,2013-03-01 01:34:00,
2013-02-28 20:40:00,32.9,30.3,29.53,NW,304,0.0,0.0,90,0.00,,,0.00,Wunderground v.1.15,2013-03-01 01:40:00,
2013-02-28 20:46:00,32.9,30.3,29.53,NW,304,0.0,0.0,90,0.00,,,0.00,Wunderground v.1.15,2013-03-01 01:46:00,
2013-02-28 20:53:00,32.8,30.2,29.53,WNW,303,0.0,0.0,90,0.00,,,0.00,Wunderground v.1.15,2013-03-01 01:53:00,
2013-02-28 20:59:00,32.7,30.1,29.52,WNW,303,0.0,1.0,90,0.00,,,0.00,Wunderground v.1.15,2013-03-01 01:59:00,
2013-02-28 21:04:00,32.6,30.0,29.52,NW,304,1.0,1.0,90,0.00,,,0.00,Wunderground v.1.15,2013-03-01 02:04:00,
2013-02-28 21:09:00,32.5,29.9,29.52,NW,304,1.0,1.0,90,0.00,,,0.00,Wunderground v.1.15,2013-03-01 02:09:00,
2013-02-28 21:15:00,32.3,29.7,29.52,NW,304,1.0,1.0,90,0.00,,,0.00,Wunderground v.1.15,2013-03-01 02:15:00,
2013-02-28 21:20:00,32.1,29.5,29.52,NW,304,1.0,1.0,90,0.00,,,0.00,Wunderground v.1.15,2013-03-01 02:20:00,
2013-02-28 21:26:00,31.9,29.3,29.52,NW,304,0.0,2.0,90,0.00,,,0.00,Wunderground v.1.15,2013-03-01 02:26:00,
2013-02-28 21:33:00,31.6,29.0,29.52,WNW,298,2.0,3.0,90,0.00,,,0.00,Wunderground v.1.15,2013-03-01 02:33:00,
2013-02-28 21:39:00,31.5,28.9,29.51,WNW,288,3.0,3.0,90,0.00,,,0.00,Wunderground v.1.15,2013-03-01 02:39:00,
2013-02-28 21:45:00,31.3,28.7,29.51,WNW,288,2.0,3.0,90,0.00,,,0.00,Wunderground v.1.15,2013-03-01 02:45:00,
2013-02-28 21:51:00,31.2,28.6,29.51,WNW,288,2.0,3.0,90,0.00,,,0.00,Wunderground v.1.15,2013-03-01 02:51:00,
2013-02-28 21:56:00,31.1,28.5,29.51,WNW,288,1.0,2.0,90,0.00,,,0.00,Wunderground v.1.15,2013-03-01 02:56:00,
2013-02-28 22:03:00,31.3,28.7,29.51,WNW,288,1.0,1.0,90,0.00,,,0.00,Wunderground v.1.15,2013-03-01 03:03:00,
2013-02-28 22:08:00,31.3,28.7,29.51,WNW,288,0.0,1.0,90,0.00,,,0.00,Wunderground v.1.15,2013-03-01 03:08:00,
2013-02-28 22:14:00,31.2,28.6,29.51,WNW,288,0.0,1.0,90,0.00,,,0.00,Wunderground v.1.15,2013-03-01 03:14:00,
2013-02-28 22:20:00,31.0,28.4,29.51,WNW,288,1.0,2.0,90,0.00,,,0.00,Wunderground v.1.15,2013-03-01 03:20:00,
2013-02-28 22:25:00,30.9,28.3,29.51,WNW,288,1.0,1.0,90,0.00,,,0.00,Wunderground v.1.15,2013-03-01 03:25:00,
2013-02-28 22:30:00,30.8,28.2,29.51,WNW,288,1.0,1.0,90,0.00,,,0.00,Wunderground v.1.15,2013-03-01 03:30:00,
2013-02-28 22:36:00,30.7,28.1,29.51,WNW,288,1.0,1.0,90,0.00,,,0.00,Wunderground v.1.15,2013-03-01 03:36:00,
2013-02-28 22:41:00,30.5,27.9,29.51,WNW,288,1.0,2.0,90,0.00,,,0.00,Wunderground v.1.15,2013-03-01 03:41:00,
2013-02-28 22:46:00,30.4,27.8,29.51,WNW,292,2.0,3.0,90,0.00,,,0.00,Wunderground v.1.15,2013-03-01 03:46:00,
2013-02-28 22:53:00,30.2,27.6,29.51,WNW,300,2.0,2.0,90,0.00,,,0.00,Wunderground v.1.15,2013-03-01 03:53:00,
2013-02-28 22:58:00,30.2,27.6,29.51,WNW,288,2.0,3.0,90,0.00,,,0.00,Wunderground v.1.15,2013-03-01 03:58:00,
2013-02-28 23:03:00,30.2,27.6,29.51,WNW,295,3.0,3.0,90,0.00,,,0.00,Wunderground v.1.15,2013-03-01 04:03:00,
2013-02-28 23:08:00,30.3,27.7,29.51,WNW,292,3.0,3.0,90,0.00,,,0.00,Wunderground v.1.15,2013-03-01 04:08:00,
2013-02-28 23:14:00,30.4,27.8,29.51,WNW,292,3.0,3.0,90,0.00,,,0.00,Wunderground v.1.15,2013-03-01 04:14:00,
2013-02-28 23:19:00,30.5,27.9,29.51,WNW,292,2.0,3.0,90,0.00,,,0.00,Wunderground v.1.15,2013-03-01 04:19:00,
2013-02-28 23:25:00,30.5,27.9,29.51,WNW,295,2.0,2.0,90,0.00,,,0.00,Wunderground v.1.15,2013-03-01 04:25:00,
2013-02-28 23:30:00,30.4,27.8,29.51,WNW,295,2.0,2.0,90,0.00,,,0.00,Wunderground v.1.15,2013-03-01 04:30:00,
2013-02-28 23:36:00,30.3,27.7,29.51,WNW,288,2.0,3.0,90,0.00,,,0.00,Wunderground v.1.15,2013-03-01 04:36:00,
2013-02-28 23:43:00,30.3,27.7,29.51,WNW,298,3.0,3.0,90,0.00,,,0.00,Wunderground v.1.15,2013-03-01 04:43:00,
2013-02-28 23:48:00,30.4,27.8,29.51,WNW,286,3.0,3.0,90,0.00,,,0.00,Wunderground v.1.15,2013-03-01 04:48:00,
2013-02-28 23:54:00,30.5,27.9,29.51,WNW,300,2.0,3.0,90,0.00,,,0.00,Wunderground v.1.15,2013-03-01 04:54:00,
2013-02-28 23:59:00,30.7,28.1,29.51,WNW,296,2.0,3.0,90,0.00,,,0.00,Wunderground v.1.15,2013-03-01 04:59:00,